When you browse on this site, cookies collect data to enhance your experience and personalize the content and advertising you see.
Visit our Privacy Policy to learn more. By continuing to use the site, you agree to this use of cookies and data.
  • In Latvia
  • List of Countries
  • For 7 days
  • Water Temperature
  • Satellite Maps
  • Weather Map
  • Weather Widgets
  • user-avatar
    Login

    Hourly Weather Nashavar

    Today, 20 May, Monday

    Time Temperature Precipitation Wind Pressure Humidity
    00:00 +30°C° 0.6 mm 2 mps 730 mmHg 48%
    01:00 +29°C° 0.6 mm 2 mps 730 mmHg 50%
    02:00 +28°C° 0.6 mm 2 mps 730 mmHg 51%
    03:00 +28°C° 0.3 mm 2 mps 730 mmHg 50%
    04:00 +28°C° 0.3 mm 2 mps 730 mmHg 49%
    05:00 +27°C° 0 mm 2 mps 729 mmHg 49%
    06:00 +28°C° 0 mm 2 mps 729 mmHg 44%
    07:00 +29°C° 0 mm 3 mps 730 mmHg 39%
    08:00 +30°C° 0 mm 3 mps 730 mmHg 34%
    09:00 +32°C° 0 mm 2 mps 730 mmHg 30%
    10:00 +34°C° 0 mm 2 mps 730 mmHg 26%
    11:00 +35°C° 0 mm 2 mps 730 mmHg 20%
    12:00 +35°C° 0 mm 1 mps 729 mmHg 18%
    13:00 +36°C° 0 mm 1 mps 729 mmHg 17%
    14:00 +37°C° 0 mm 1 mps 729 mmHg 16%
    15:00 +37°C° 0 mm 1 mps 729 mmHg 16%
    16:00 +37°C° 0 mm 1 mps 728 mmHg 16%
    17:00 +37°C° 0 mm 1 mps 728 mmHg 16%
    18:00 +36°C° 0 mm 1 mps 728 mmHg 19%
    19:00 +35°C° 0 mm 1 mps 728 mmHg 22%
    20:00 +34°C° 0 mm 1 mps 728 mmHg 25%
    21:00 +33°C° 0 mm 1 mps 729 mmHg 27%
    22:00 +33°C° 0 mm 1 mps 729 mmHg 28%
    23:00 +30°C° 0 mm 0 mps 729 mmHg 30%

    Tomorrow, 21 May, Tuesday

    Time Temperature Precipitation Wind Pressure Humidity
    00:00 +32°C° 0 mm 1 mps 729 mmHg 30%
    01:00 +31°C° 0 mm 1 mps 729 mmHg 30%
    02:00 +30°C° 0 mm 1 mps 728 mmHg 30%
    03:00 +30°C° 0 mm 1 mps 728 mmHg 30%
    04:00 +29°C° 0 mm 1 mps 728 mmHg 31%
    05:00 +29°C° 0 mm 1 mps 728 mmHg 32%
    06:00 +30°C° 0 mm 2 mps 728 mmHg 29%
    07:00 +31°C° 0 mm 2 mps 729 mmHg 26%
    08:00 +32°C° 0 mm 2 mps 729 mmHg 23%
    09:00 +34°C° 0 mm 2 mps 729 mmHg 21%
    10:00 +35°C° 0 mm 1 mps 729 mmHg 19%
    11:00 +36°C° 0 mm 1 mps 729 mmHg 16%
    12:00 +37°C° 0 mm 1 mps 728 mmHg 16%
    13:00 +39°C° 0 mm 1 mps 728 mmHg 15%
    14:00 +40°C° 0 mm 1 mps 727 mmHg 15%
    15:00 +40°C° 0 mm 1 mps 727 mmHg 15%
    16:00 +40°C° 0 mm 2 mps 726 mmHg 16%
    17:00 +40°C° 0 mm 2 mps 726 mmHg 16%
    18:00 +39°C° 0.1 mm 2 mps 726 mmHg 18%
    19:00 +37°C° 0.1 mm 1 mps 726 mmHg 20%
    20:00 +36°C° 0.1 mm 1 mps 727 mmHg 23%
    21:00 +35°C° 0.1 mm 1 mps 727 mmHg 24%
    22:00 +34°C° 0.1 mm 1 mps 727 mmHg 25%
    23:00 +32°C° 0.1 mm 0 mps 727 mmHg 27%

    Day after tomorrow, 22 May, Wednesday

    Time Temperature Precipitation Wind Pressure Humidity
    00:00 +33°C° 0 mm 1 mps 727 mmHg 27%
    01:00 +33°C° 0 mm 1 mps 727 mmHg 27%
    02:00 +32°C° 0 mm 2 mps 727 mmHg 28%
    03:00 +32°C° 0.1 mm 2 mps 726 mmHg 28%
    04:00 +31°C° 0.1 mm 2 mps 726 mmHg 29%
    05:00 +31°C° 0.1 mm 2 mps 726 mmHg 29%
    06:00 +31°C° 0.1 mm 2 mps 726 mmHg 28%
    07:00 +32°C° 0.1 mm 2 mps 726 mmHg 26%
    08:00 +34°C° 0.1 mm 2 mps 727 mmHg 25%
    09:00 +34°C° 0 mm 2 mps 727 mmHg 23%
    10:00 +35°C° 0 mm 2 mps 727 mmHg 22%
    11:00 +36°C° 0 mm 2 mps 727 mmHg 21%
    12:00 +36°C° 0 mm 2 mps 727 mmHg 22%
    13:00 +36°C° 0 mm 3 mps 727 mmHg 22%
    14:00 +36°C° 0 mm 3 mps 727 mmHg 22%
    15:00 +36°C° 0.1 mm 4 mps 726 mmHg 25%
    16:00 +35°C° 0.1 mm 4 mps 726 mmHg 28%
    17:00 +34°C° 0.1 mm 5 mps 726 mmHg 30%
    18:00 +32°C° 0.4 mm 6 mps 726 mmHg 38%
    19:00 +29°C° 0.4 mm 6 mps 726 mmHg 46%
    20:00 +27°C° 0.4 mm 7 mps 727 mmHg 53%
    21:00 +27°C° 0.2 mm 7 mps 727 mmHg 53%
    22:00 +27°C° 0.2 mm 6 mps 727 mmHg 53%
    23:00 +26°C° 0.2 mm 6 mps 727 mmHg 53%

    23 May, Thursday

    Time Temperature Precipitation Wind Pressure Humidity
    00:00 +26°C° 0 mm 5 mps 727 mmHg 53%
    01:00 +26°C° 0 mm 5 mps 727 mmHg 52%
    02:00 +26°C° 0 mm 4 mps 726 mmHg 51%
    03:00 +26°C° 0 mm 4 mps 726 mmHg 50%
    04:00 +26°C° 0 mm 3 mps 726 mmHg 50%
    05:00 +26°C° 0 mm 3 mps 726 mmHg 49%
    06:00 +27°C° 0 mm 3 mps 726 mmHg 46%
    07:00 +28°C° 0 mm 3 mps 726 mmHg 43%
    08:00 +29°C° 0 mm 3 mps 727 mmHg 39%
    09:00 +30°C° 0 mm 2 mps 727 mmHg 35%
    10:00 +31°C° 0 mm 2 mps 727 mmHg 31%
    11:00 +34°C° 0 mm 2 mps 727 mmHg 27%
    12:00 +34°C° 0.1 mm 2 mps 727 mmHg 27%
    13:00 +35°C° 0.1 mm 2 mps 726 mmHg 26%
    14:00 +36°C° 0.1 mm 3 mps 726 mmHg 26%
    15:00 +36°C° 0 mm 3 mps 726 mmHg 26%
    16:00 +36°C° 0 mm 3 mps 725 mmHg 26%
    17:00 +36°C° 0 mm 3 mps 725 mmHg 26%
    18:00 +35°C° 0.3 mm 2 mps 725 mmHg 28%
    19:00 +35°C° 0.3 mm 2 mps 726 mmHg 31%
    20:00 +33°C° 0.3 mm 1 mps 726 mmHg 34%
    21:00 +32°C° 0.8 mm 2 mps 726 mmHg 38%
    22:00 +30°C° 0.8 mm 2 mps 726 mmHg 43%
    23:00 +29°C° 0.8 mm 3 mps 726 mmHg 47%

    24 May, Friday

    Time Temperature Precipitation Wind Pressure Humidity
    00:00 +29°C° 0.2 mm 2 mps 726 mmHg 49%
    01:00 +28°C° 0.2 mm 1 mps 726 mmHg 51%
    02:00 +28°C° 0.2 mm 1 mps 726 mmHg 53%
    03:00 +28°C° 0.1 mm 1 mps 726 mmHg 54%
    04:00 +28°C° 0.1 mm 1 mps 726 mmHg 55%
    05:00 +27°C° 0.1 mm 1 mps 726 mmHg 55%
    06:00 +28°C° 0 mm 2 mps 726 mmHg 52%
    07:00 +29°C° 0 mm 2 mps 727 mmHg 49%
    08:00 +30°C° 0 mm 2 mps 727 mmHg 45%
    09:00 +31°C° 0 mm 2 mps 727 mmHg 41%
    10:00 +32°C° 0 mm 2 mps 727 mmHg 38%
    11:00 +34°C° 0 mm 2 mps 727 mmHg 34%
    12:00 +34°C° 0 mm 1 mps 727 mmHg 31%
    13:00 +35°C° 0 mm 1 mps 726 mmHg 29%
    14:00 +36°C° 0 mm 1 mps 726 mmHg 26%
    15:00 +36°C° 0 mm 1 mps 726 mmHg 25%
    16:00 +37°C° 0 mm 1 mps 725 mmHg 24%
    17:00 +37°C° 0 mm 1 mps 725 mmHg 23%
    18:00 +37°C° 0 mm 2 mps 726 mmHg 25%
    19:00 +36°C° 0 mm 2 mps 726 mmHg 26%
    20:00 +35°C° 0 mm 2 mps 726 mmHg 28%
    21:00 +35°C° 0 mm 2 mps 726 mmHg 30%
    22:00 +33°C° 0 mm 1 mps 727 mmHg 31%
    23:00 +33°C° 0 mm 1 mps 727 mmHg 33%

    25 May, Saturday

    Time Temperature Precipitation Wind Pressure Humidity
    00:00 +32°C° 0.1 mm 1 mps 727 mmHg 35%
    01:00 +31°C° 0.1 mm 2 mps 726 mmHg 36%
    02:00 +31°C° 0.1 mm 2 mps 726 mmHg 38%
    03:00 +30°C° 0.1 mm 2 mps 726 mmHg 39%
    04:00 +30°C° 0.1 mm 2 mps 725 mmHg 41%
    05:00 +29°C° 0.1 mm 1 mps 725 mmHg 42%
    06:00 +30°C° 0 mm 2 mps 726 mmHg 39%
    07:00 +31°C° 0 mm 2 mps 726 mmHg 36%
    08:00 +32°C° 0 mm 2 mps 726 mmHg 33%
    09:00 +34°C° 0 mm 2 mps 726 mmHg 30%
    10:00 +35°C° 0 mm 2 mps 726 mmHg 27%
    11:00 +36°C° 0 mm 2 mps 726 mmHg 24%
    12:00 +37°C° 0 mm 2 mps 725 mmHg 22%
    13:00 +37°C° 0 mm 1 mps 724 mmHg 20%
    14:00 +39°C° 0 mm 1 mps 724 mmHg 19%
    15:00 +39°C° 0 mm 1 mps 724 mmHg 19%
    16:00 +39°C° 0 mm 2 mps 723 mmHg 19%
    17:00 +40°C° 0 mm 2 mps 723 mmHg 19%
    18:00 +39°C° 0.5 mm 2 mps 723 mmHg 22%
    19:00 +36°C° 0.5 mm 1 mps 724 mmHg 25%
    20:00 +35°C° 0.5 mm 1 mps 724 mmHg 29%
    21:00 +35°C° 0.1 mm 1 mps 724 mmHg 30%
    22:00 +35°C° 0.1 mm 2 mps 725 mmHg 32%
    23:00 +34°C° 0.1 mm 2 mps 725 mmHg 33%
    Show more